Location: Il Ritiro
(43.4167°N, 13.1333°E)
Time: 00:22:03
(UTC+00:00)

ERS-1 Rocket - Pass Details

Date: 05 July 2020
Orbit: 752 x 758 km, 98.5° (Epoch: 11 August)

Event Time Altitude Azimuth Distance (km) Brightness Sun altitude
Exits shadow 20:56:51 24° 180° (S) 1,547 4.1 -17.0°
Maximum altitude 20:59:56 67° 258° (WSW) 821 3.2 -17.3°
Drops below altitude 10° 21:04:58 10° 341° (NNW) 2,297 6.7 -17.7°
Sets 21:07:18 0° 344° (NNW) 3,226 7.7 -17.9°
